Theta_e
308 308 308 308 307 305 298 291 279 294 304 289 288 279 286 290 288 290 288 288 286 284 286 285 284 284 287 294 293 286 290 286 284 288 292 297 294 288 288 286 282 285 286 287
308 307 307 308 307 304 294 289 286 296 297 282 280 286 287 289 287 288 287 286 288 287 284 282 286 288 294 293 292 288 292 285 281 284 288 291 291 291 291 288 286 286 283 286
307 307 307 307 307 305 291 286 280 285 291 288 286 283 283 284 290 288 288 286 287 284 283 286 284 286 291 293 292 296 295 285 285 282 286 289 288 291 292 287 282 286 289 289
306 307 307 307 306 305 291 284 280 287 282 282 284 286 284 283 284 289 289 285 285 285 282 284 285 288 290 293 293 293 291 281 286 288 291 292 290 291 292 289 290 286 290 293
306 305 306 307 307 303 290 281 288 289 285 287 285 282 284 284 285 288 286 285 287 286 282 285 284 288 289 288 291 291 291 281 285 284 291 292 291 291 292 292 292 291 291 291
305 305 305 306 306 300 288 291 296 290 287 285 282 279 284 285 286 288 290 289 287 285 287 290 291 292 291 291 289 288 288 284 281 279 286 288 286 291 291 292 294 293 290 295
305 305 304 305 306 304 299 295 294 288 283 284 283 284 285 285 287 285 288 290 286 290 293 293 292 291 291 292 293 293 287 285 283 279 285 279 290 296 296 293 294 295 295 296
305 305 306 306 307 307 299 297 294 290 283 286 285 287 286 287 288 285 288 291 293 293 289 284 283 285 287 289 292 291 291 288 281 279 282 287 291 294 293 290 292 296 296 299
305 305 306 307 307 307 300 297 298 294 287 284 289 287 288 285 285 285 288 293 293 294 285 282 277 277 284 284 287 293 292 291 284 283 282 280 289 296 300 298 287 297 299 300
305 305 306 307 307 307 300 299 299 295 287 290 289 286 287 290 289 288 289 290 291 294 286 282 281 277 288 282 283 287 285 286 282 282 280 286 295 297 299 287 287 296 298 300
305 305 306 307 307 308 302 297 299 296 290 291 293 292 289 291 290 286 290 289 287 289 284 284 283 284 287 286 288 285 285 284 282 284 281 282 298 296 289 293 296 298 299 299
305 305 306 307 308 308 307 297 298 300 294 292 297 296 297 295 294 291 292 290 290 292 286 287 288 286 287 286 282 290 285 289 286 289 290 296 298 297 298 297 297 298 298 300
305 305 306 307 307 308 306 299 298 297 292 292 292 292 295 298 297 299 290 288 295 291 295 292 290 286 289 284 285 287 291 294 290 291 295 296 297 301 299 299 299 300 300 302
305 305 306 307 307 306 306 300 300 298 293 288 289 299 297 302 301 299 298 296 297 296 297 292 290 286 292 287 289 287 290 293 292 291 295 296 298 298 299 300 301 300 301 302
305 306 306 306 306 305 301 295 299 300 293 288 290 295 299 302 302 300 301 297 294 293 291 290 287 287 291 293 292 289 293 291 290 288 294 294 295 299 301 300 299 300 300 301
305 305 305 306 306 304 293 287 292 299 299 292 286 292 294 299 301 300 299 298 293 294 292 290 289 290 292 286 284 291 295 296 298 295 299 299 299 301 302 300 300 301 301 303
304 304 305 306 306 295 290 289 296 301 300 292 287 287 294 298 298 298 297 297 295 294 293 290 286 287 289 285 281 290 293 294 295 298 299 297 299 297 301 303 302 303 303 304
303 303 307 307 306 301 293 296 303 301 293 294 286 285 291 297 293 293 296 294 293 289 291 288 286 288 287 282 290 293 295 295 295 296 297 296 298 300 301 303 302 301 301 303
302 305 306 299 293 291 294 305 304 296 291 287 288 285 284 296 294 295 290 290 289 293 290 291 291 284 283 288 293 294 295 293 294 296 296 296 296 299 301 302 301 300 300 302
303 298 294 290 294 304 303 295 291 290 291 294 288 290 286 292 293 291 287 288 287 285 290 293 288 287 294 296 296 296 297 297 296 293 292 294 295 297 299 299 300 301 301 303
293 291 290 295 302 295 291 287 286 286 284 290 290 290 287 296 289 287 289 285 286 282 285 287 286 286 291 296 297 299 299 299 299 298 297 296 296 295 296 298 300 302 302 302
293 294 297 298 292 288 286 281 284 285 284 288 287 288 290 293 294 288 288 285 285 280 289 286 284 290 295 297 298 299 301 301 301 300 298 298 298 298 298 299 300 302 304 304
300 297 294 289 286 279 283 280 282 282 286 288 288 286 288 291 291 287 284 279 274 283 280 282 288 293 295 296 298 299 302 302 303 303 301 300 300 300 300 300 302 303 304 305
292 290 284 285 283 283 283 282 284 288 287 288 286 285 286 285 283 285 278 281 283 273 273 282 289 292 294 296 299 299 299 301 301 303 303 301 300 300 301 302 303 304 304 305
291 288 280 285 288 288 288 289 288 289 289 288 286 285 286 281 283 286 282 281 272 281 282 287 289 293 294 295 297 299 300 300 300 303 302 301 300 300 301 302 304 305 305 304
293 290 285 287 288 288 288 288 287 289 288 288 287 283 282 280 280 276 281 281 272 282 286 292 295 294 293 294 296 299 301 301 302 301 302 302 302 301 302 304 305 306 304 304
292 287 290 288 288 289 289 289 289 289 288 284 285 283 281 282 276 273 284 279 286 288 292 294 293 294 293 294 296 298 300 300 302 301 301 300 303 302 301 301 303 306 305 307
Wind_Speed
21 22 22 23 23 19 6 3 4 4 2 1 1 2 3 6 7 6 5 4 7 8 10 6 5 5 5 14 18 11 4 2 5 15 7 18 20 10 9 11 7 3 3 8
22 22 22 21 21 10 3 3 3 3 4 2 3 4 6 4 4 4 3 4 5 5 7 6 9 3 3 8 12 12 10 5 2 4 3 5 23 13 12 6 5 15 5 6
21 21 23 19 20 10 3 3 5 5 3 1 4 6 5 5 5 7 4 4 4 3 9 7 6 9 5 3 12 15 9 4 4 6 2 5 17 19 18 8 5 7 21 5
20 20 21 20 19 9 3 3 3 2 4 4 9 6 4 7 7 3 7 4 1 5 4 6 7 3 7 5 1 3 6 5 4 11 13 9 1 18 20 20 13 7 5 14
20 20 20 20 16 8 4 2 3 2 4 7 9 3 3 5 4 3 5 3 8 8 5 5 12 6 2 5 7 3 7 5 6 6 12 8 11 6 20 24 20 14 6 9
19 19 18 19 16 4 2 3 1 1 5 5 3 4 4 6 13 8 8 7 10 10 10 4 8 7 11 11 7 4 2 4 6 5 10 8 9 21 11 10 15 15 16 15
18 17 18 16 16 3 2 3 1 2 3 3 3 8 14 14 13 11 13 10 6 6 9 13 9 12 13 12 13 8 6 3 3 5 4 6 7 9 13 11 8 17 12 7
20 19 18 17 16 12 2 2 2 2 4 6 10 9 12 14 12 6 7 7 7 6 5 3 4 2 2 7 12 12 10 5 3 2 3 6 1 8 6 4 11 6 8 14
21 21 19 17 15 13 3 2 2 1 4 4 5 12 10 7 7 5 4 7 5 3 1 1 2 3 2 3 5 12 8 10 4 2 3 6 2 17 12 8 6 11 13 11
22 21 19 17 15 13 2 2 5 2 4 5 3 5 4 4 4 4 5 8 4 4 2 1 2 4 2 3 3 4 4 4 8 6 4 5 11 19 12 8 6 17 12 12
23 21 20 18 15 12 3 3 5 3 4 9 8 5 5 4 4 3 5 7 2 2 2 2 3 3 2 2 2 1 4 2 3 3 4 4 15 8 10 7 9 12 13 13
23 22 20 17 15 12 4 3 3 3 4 7 10 16 19 16 19 6 4 4 5 2 2 2 3 2 2 2 2 1 3 4 2 3 3 3 4 3 5 4 11 13 16 17
24 22 19 17 15 11 5 3 3 1 3 5 2 5 3 3 7 9 3 2 3 2 2 3 2 4 4 3 2 1 1 3 3 3 6 14 17 8 6 13 13 17 15 17
24 23 20 16 13 9 7 3 2 2 3 4 7 2 3 3 2 6 10 8 2 1 2 2 2 3 2 2 1 1 1 4 2 4 5 15 2 11 14 20 18 20 21 18
25 24 22 18 13 8 3 2 4 3 1 3 7 11 5 5 3 7 8 8 5 1 3 2 3 2 2 3 0 0 1 3 1 2 3 8 13 14 19 16 18 21 20 23
27 27 25 17 10 1 2 3 1 4 4 3 5 5 4 5 7 8 4 5 3 2 2 2 3 5 2 2 1 5 8 9 5 4 7 11 15 16 12 17 19 19 18 18
29 26 25 16 7 4 3 4 2 8 4 2 5 5 4 5 4 3 2 3 2 2 1 2 2 3 1 1 2 9 8 10 12 8 7 11 10 12 17 17 19 18 16 16
31 27 16 4 11 1 3 1 10 6 2 1 2 6 5 5 3 3 3 2 1 1 2 2 2 4 2 2 3 5 9 10 13 7 7 9 14 16 15 15 14 18 15 16
32 17 6 2 3 1 2 3 6 2 3 1 1 3 5 3 2 2 4 1 2 2 2 2 3 3 2 5 10 10 13 9 13 13 12 13 13 13 16 16 15 15 16 15
19 2 2 3 1 9 6 2 1 1 1 1 3 2 4 1 2 1 3 3 2 3 1 3 1 3 7 8 10 15 14 13 13 13 14 9 9 11 13 15 13 13 14 14
6 6 3 4 10 1 1 1 1 1 2 3 4 5 3 1 2 2 1 1 1 2 2 3 2 2 7 13 16 15 16 16 14 16 17 14 14 12 13 18 14 13 13 12
5 7 7 4 3 2 1 1 2 1 4 3 3 3 4 1 1 1 1 1 0 1 3 2 2 5 15 15 17 19 12 12 13 15 19 17 15 14 14 16 14 14 13 13
2 3 4 1 2 4 3 2 3 2 3 4 2 4 1 1 1 1 2 5 3 2 3 1 2 12 15 16 16 17 16 16 11 10 13 15 14 14 13 14 15 14 14 14
3 2 6 4 3 5 5 5 5 6 4 4 1 2 1 0 2 0 3 3 1 5 4 1 5 11 15 16 16 17 19 20 17 14 9 11 13 11 12 14 14 12 15 14
4 3 5 6 4 3 3 3 2 4 2 1 1 1 2 2 2 1 2 3 3 1 3 4 5 12 12 15 15 15 15 16 17 16 12 5 5 7 11 11 12 12 15 13
4 5 2 3 1 4 2 3 4 2 3 2 3 1 2 1 2 3 1 1 3 4 4 5 9 12 11 12 13 13 12 12 13 13 13 11 9 6 8 9 11 15 12 11
5 5 4 4 2 5 4 4 4 2 3 2 2 2 3 2 3 2 3 4 4 5 7 5 8 8 9 10 11 11 11 12 11 12 13 10 10 7 7 7 8 10 7 7
Wind_Direction
337 336 340 344 344 341 29 345 27 296 264 360 3 292 288 311 289 300 263 251 228 263 293 314 319 259 253 341 335 344 302 309 249 208 172 194 199 180 164 191 193 173 166 263
338 335 335 341 343 5 324 334 283 313 61 30 319 291 279 260 289 308 305 307 327 312 310 320 321 37 128 290 332 348 341 306 165 350 166 207 201 198 187 85 103 206 158 249
338 336 332 343 340 352 77 4 348 330 38 255 334 336 287 316 291 310 297 275 275 292 283 257 274 289 303 248 299 313 319 269 256 213 253 121 199 201 190 146 154 175 222 243
341 336 334 344 340 358 88 26 289 256 329 330 321 303 291 309 339 328 327 314 299 350 293 319 271 358 343 263 335 344 322 279 289 279 271 298 38 203 207 212 211 171 207 207
343 338 334 339 342 0 66 73 347 321 277 308 323 318 264 301 311 285 290 238 304 298 249 255 286 309 258 251 135 130 325 282 337 299 282 279 272 255 216 209 216 233 226 246
340 338 336 331 340 49 48 284 285 262 285 314 324 262 330 306 318 286 226 279 300 298 290 281 275 274 265 251 293 162 164 315 351 291 336 315 258 237 230 231 215 197 209 223
333 332 334 324 323 278 203 248 281 274 288 263 248 285 293 295 301 288 279 290 268 258 323 312 264 245 242 227 239 176 176 136 258 265 325 202 256 190 204 207 225 228 241 176
327 332 327 320 315 321 192 221 197 266 278 257 283 287 313 309 299 264 262 283 301 326 305 282 305 260 203 230 219 184 186 128 265 233 257 282 304 45 9 166 241 195 218 236
328 332 326 319 313 311 186 199 208 259 294 248 281 309 291 299 316 302 248 309 316 329 298 291 250 250 269 194 178 210 202 186 211 295 239 214 56 315 311 268 223 16 348 333
327 330 327 324 319 308 180 235 182 227 260 262 246 263 314 290 274 273 296 336 313 302 321 260 262 255 235 236 149 159 93 124 197 226 283 284 335 322 307 135 294 326 331 312
326 329 324 323 318 308 172 241 180 194 247 282 247 266 223 251 228 270 339 315 326 277 299 284 312 293 308 352 70 175 100 165 178 187 252 285 352 1 59 283 301 310 313 306
326 330 323 320 312 299 262 245 176 178 254 274 295 268 255 251 250 263 237 276 300 271 303 310 291 270 246 238 191 287 188 186 145 253 293 344 352 240 242 274 309 313 319 308
326 326 322 315 307 305 276 237 145 157 263 271 274 278 294 226 225 204 231 259 249 293 247 330 300 306 333 357 52 287 239 158 229 264 15 336 311 316 307 331 319 319 321 317
327 326 325 317 306 297 292 200 177 166 263 277 273 296 317 347 348 185 213 256 298 328 301 291 280 291 275 314 288 348 311 311 248 271 331 321 319 345 328 327 322 330 329 329
327 326 324 317 302 291 277 229 206 185 215 290 292 310 244 225 234 270 239 224 222 242 273 245 259 244 277 262 117 66 210 287 325 310 301 273 283 313 319 321 325 325 326 330
325 326 320 315 287 214 71 334 255 187 183 282 306 312 307 285 277 293 290 202 164 201 222 231 252 255 185 340 327 21 19 339 294 273 221 255 287 303 321 324 323 320 317 321
323 325 318 306 211 127 167 190 222 174 169 262 297 294 272 304 309 335 11 125 147 200 238 243 255 298 108 143 288 342 328 330 328 331 311 294 294 306 319 308 321 315 309 324
323 325 323 79 145 16 337 266 170 144 139 76 295 279 313 359 318 333 8 5 74 39 307 330 346 313 17 290 287 306 327 319 303 316 320 275 287 291 313 309 322 322 320 327
325 321 131 73 64 79 255 60 126 89 143 211 246 288 298 4 297 330 347 356 8 344 335 351 343 357 317 292 310 325 314 291 284 281 282 279 285 293 299 305 314 316 317 325
324 37 16 334 326 312 78 20 89 3 301 208 256 238 271 264 272 34 342 32 20 327 36 274 20 331 293 291 313 302 292 274 271 279 277 275 279 281 283 291 300 303 303 311
7 0 325 300 312 49 73 230 129 286 288 223 238 224 270 168 317 335 11 346 332 330 311 347 323 326 287 294 299 283 273 270 259 243 250 254 250 258 275 281 288 292 297 298
271 287 291 275 312 349 219 283 324 173 250 264 224 261 209 27 3 333 328 333 347 305 315 324 291 280 315 329 315 320 289 305 277 241 241 235 240 243 253 266 277 282 293 288
244 203 250 71 269 17 193 230 303 288 243 249 317 326 138 64 48 333 4 26 257 322 23 302 270 294 314 325 321 321 328 338 329 298 239 238 241 243 246 267 271 276 281 274
235 214 290 183 257 241 190 184 209 237 225 278 289 264 92 177 63 277 71 241 43 23 19 309 274 309 310 318 325 331 340 343 342 333 305 244 239 234 245 249 261 266 278 271
228 137 243 232 238 252 221 221 290 244 232 148 356 34 99 14 90 8 19 15 360 247 265 252 278 305 312 313 324 331 340 348 355 349 348 303 248 239 251 251 258 261 264 260
224 229 252 235 301 275 225 196 250 219 144 99 60 64 56 55 134 56 152 3 229 258 231 268 303 304 309 312 321 323 332 342 342 357 3 5 356 285 252 267 262 256 239 238
226 247 208 180 239 228 239 183 239 151 92 205 109 314 241 113 49 322 205 210 222 235 279 287 283 285 296 307 318 327 332 340 349 354 4 1 343 339 341 346 321 321 266 250